Simultaneous Nadir Overpasses (SNOs) Predictions

Prediction of SNOs between GOES-16 and AQUA Satellite Orbit:

Table of predicted SNOs for the next 14.0 days since TLE Epoch: 5/22/2021
Index Date Time (GOES-16) GOES-16 Lat,Lon AQUA Lat,Lon Distance(km) Time Diff (sec)
1 05/23/2021 06:38:09 -0.02, -75.19 -0.01, -75.35 18.11 80
2 05/25/2021 06:23:17 -0.02, -75.19 -0.62, -72.39 318.66 80
3 05/25/2021 18:44:41 0.02, -75.19 -0.49, -77.58 271.59 80
4 05/27/2021 18:35:09 0.02, -75.19 0.12, -74.62 65.38 80
5 05/29/2021 18:22:57 0.01, -75.20 0.75, -71.66 402.84 80
6 05/30/2021 06:41:33 -0.02, -75.21 0.32, -76.82 183.15 80
7 06/01/2021 06:32:01 -0.01, -75.22 -0.31, -73.86 155.37 80
8 06/01/2021 18:50:45 0.01, -75.23 -0.79, -79.05 434.37 80
9 06/03/2021 06:19:49 -0.01, -75.25 -0.94, -70.90 494.83 80
10 06/03/2021 18:38:33 0.01, -75.26 -0.15, -76.09 94.65 80
